Weather History for Pueblo, CO

Change the Weather History Date:

Tuesday, August 27, 2013

  Actual Average Record
Temperature  
Mean Temperature 79 °F 72 °F  
Max Temperature 93 °F 88 °F 100 °F (1960)
Min Temperature 65 °F 56 °F 45 °F (1992)
Degree Days  
Heating Degree Days 0 0  
Month to date heating degree days 0 0  
Since 1 June heating degree days 17 26  
Since 1 July heating degree days 0 1  
Cooling Degree Days 14 7  
Month to date cooling degree days 264 239  
Year to date cooling degree days 1003 784  
Since 1 June cooling degree days 930 750  
Growing Degree Days 28 (Base 50)    
Moisture  
Dew Point 52 °F    
Average Humidity 45    
Maximum Humidity 68    
Minimum Humidity 21    
Precipitation  
Precipitation 0.00 in 0.06 in 0.99 in (1930)
Month to date precipitation 3.92 2.09  
Year to date precipitation 7.80 10.00  
Snow  
Snow 0.00 in 0.00 in 0.00 in (2002)
Month to date snowfall 0.0 0.0  
Since 1 June snowfall T 0.0  
Since 1 July snowfall T 0.0  
Snow Depth 0.00 in    
Sea Level Pressure  
Sea Level Pressure 29.88 in    
Wind  
Wind Speed 6 mph (NE)    
Max Wind Speed 14 mph    
Max Gust Speed 18 mph    
Visibility 10 miles    
Events      
T = Trace of Precipitation, MM = Missing Value Source: NWS Daily Summary

Daily Weather History Graph

Daily Weather History Graph

Search for Another Location

Airport:

Trip Planner

Search our weather history database for the weather conditions in past years. The results will help you decide how hot, cold, wet, or windy it might be!

Date:

Astronomy

Aug. 27, 2013 Rise Set
Actual Time 6:23 AM MDT 7:34 PM MDT
Civil Twilight 5:56 AM MDT 8:01 PM MDT
Nautical Twilight 5:23 AM MDT 8:34 PM MDT
Astronomical Twilight 4:49 AM MDT 9:08 PM MDT
Moon 11:36 PM MDT (8/27) 1:17 PM MDT (8/27)
Length of Visible Light 14h 05m
Length of Day
13h 11m
Waning Gibbous, 56% of the Moon is Illuminated
Aug 27
Waning Gibbous
Aug 28
Last Quarter
Sep 5
New
Sep 12
First Quarter
Sep 19
Full

Hourly Weather History & Observations

Time (MDT) Temp. Heat Index Dew Point Humidity Pressure Visibility Wind Dir Wind Speed Gust Speed Precip Events Conditions
12:53 AM 72.0 °F - 53.1 °F 51% 29.86 in 10.0 mi North 10.4 mph - N/A   Clear
1:53 AM 72.0 °F - 53.1 °F 51% 29.87 in 10.0 mi North 12.7 mph - N/A   Clear
2:53 AM 71.1 °F - 54.0 °F 55% 29.89 in 10.0 mi North 9.2 mph - N/A   Clear
3:53 AM 69.1 °F - 55.9 °F 63% 29.89 in 10.0 mi Variable 3.5 mph - N/A   Clear
4:53 AM 66.9 °F - 55.9 °F 68% 29.92 in 10.0 mi SSW 3.5 mph - N/A   Clear
5:53 AM 66.0 °F - 55.9 °F 70% 29.92 in 10.0 mi North 4.6 mph - N/A   Clear
6:53 AM 66.0 °F - 55.9 °F 70% 29.94 in 10.0 mi West 6.9 mph - N/A   Clear
7:53 AM 73.9 °F - 55.9 °F 53% 29.95 in 10.0 mi West 5.8 mph - N/A   Clear
8:53 AM 78.1 °F - 55.0 °F 45% 29.94 in 10.0 mi WSW 9.2 mph - N/A   Clear
9:53 AM 82.0 °F 81.7 °F 57.0 °F 42% 29.93 in 10.0 mi SSE 6.9 mph - N/A   Clear
10:53 AM 84.9 °F 83.3 °F 54.0 °F 34% 29.92 in 10.0 mi NE 5.8 mph - N/A   Clear
11:53 AM 88.0 °F 85.9 °F 54.0 °F 31% 29.91 in 10.0 mi Calm Calm - N/A   Clear
12:53 PM 89.1 °F 87.3 °F 55.9 °F 32% 29.89 in 10.0 mi SSE 8.1 mph - N/A   Clear
1:53 PM 89.1 °F - 52.0 °F 28% 29.88 in 10.0 mi Variable 4.6 mph - N/A   Clear
2:53 PM 91.0 °F - 51.1 °F 25% 29.86 in 10.0 mi ESE 6.9 mph 16.1 mph N/A   Clear
3:53 PM 91.9 °F - 48.0 °F 22% 29.84 in 10.0 mi East 5.8 mph - N/A   Clear
4:53 PM 91.0 °F - 46.9 °F 22% 29.84 in 10.0 mi ESE 5.8 mph - N/A   Clear
5:53 PM 91.0 °F - 48.0 °F 23% 29.83 in 10.0 mi East 6.9 mph - N/A   Clear
6:53 PM 87.1 °F - 48.0 °F 26% 29.83 in 10.0 mi East 9.2 mph - N/A   Clear
7:53 PM 82.0 °F - 50.0 °F 33% 29.83 in 10.0 mi NE 5.8 mph - N/A   Clear
8:53 PM 79.0 °F - 48.0 °F 34% 29.84 in 10.0 mi NE 10.4 mph - N/A   Clear
9:53 PM 73.9 °F - 50.0 °F 43% 29.85 in 10.0 mi Calm Calm - N/A   Clear
10:53 PM 72.0 °F - 48.9 °F 44% 29.86 in 10.0 mi West 5.8 mph - N/A   Clear
11:53 PM 69.1 °F - 48.9 °F 49% 29.84 in 10.0 mi NNW 6.9 mph - N/A   Clear